sat.trackr.live / text

‹ back to catalog

HAWK-6C

NORAD 55326 · 2023-011C

PAYLOAD ACTIVE UNKNOWN

§ Identity

Operator
Country
US
Launch date
2023-01-24
Launch site
WLPIS
Launch vehicle
Mass (kg)
RCS (m²)

Purposes: tech_demo

External: N2YO · Heavens-Above · Gunter

§ Orbital elements

Epoch: 2026-09-20T01:09:40.601376Z

Period
94.51 min
Inclination
40.4963°
Eccentricity
0.0004121
Mean motion
15.23654808 rev/d
Perigee alt
492.0 km
Apogee alt
497.7 km
Semi-major
6,873.0 km
B*
1.0823e-4
RAAN
155.2931°
Arg perigee
308.9826°
Mean anomaly
51.0616°
Rev number
20,232

§ Raw data

HAWK-6C1 55326U 23011C   26263.04838659  .00002453  00000+0  10823-3 0  99902 55326  40.4963 155.2931 0004121 308.9826  51.0616 15.23654808202329

JSON: /api/v1/satellites/55326 · /tle

For live sub-satellite position, see the globe view (requires WebGL).

§ Visibility from observer

Set your observer location to see the next 7 days of passes ≥ 10°. The values pass through the URL so the page stays shareable.

No JS? Fill the form by hand. The geolocation button needs JavaScript.